[[{"header":{"parameterUnit":"m.s-1","parameterCategory":1,"la1":30.2991,"la2":30.254,"lo1":-89.0895,"lo2":-89.0444,"dx":0.0017,"dy":0.0017,"nx":28,"ny":28,"refTime":"2023-02-06T09:00:00:Z","depth":0,"parameterNumber":2,"parameterNumberName":"U-component_of_WINDS"},"data":[0,0,0,0,0,0,0,0,0,0,0,0,0,0,0,0,0,0,0,0,0,0,0,0,0,0,0,0,0,0,0,0,0,0,0,0,0,0,0,0,0,0,0,0,0,0,0,0,0,0,0,0,0,0,0,0,0,0,1.611,1.611,0,1.6151,1.6152,1.6152,1.6129,1.6128,1.6127,1.6126,1.6169,1.6171,1.6173,0,0,0,0,0,0,0,0,0,0,0,0,0,1.601,1.6012,1.611,1.611,1.6111,1.6151,1.6152,1.6152,1.6129,1.6128,1.6127,1.6125,1.6168,1.6171,1.6173,0,0,0,0,0,0,0,0,0,0,0,0,0,1.6053,1.6013,1.611,1.6104,1.6104,1.6151,1.6152,1.6153,1.613,1.6128,1.6126,1.6125,1.6167,1.617,1.6174,1.6229,0,0,1.6184,1.6185,0,0,0,0,0,0,0,0,1.605,1.6057,1.6105,1.6105,1.6105,1.6133,1.6132,1.6178,1.613,1.612,1.6126,1.6124,1.6158,1.6162,1.6174,1.6231,1.6233,1.6184,1.6186,1.6188,1.6189,0,0,0,0,0,0,0,1.6048,1.6055,1.6126,1.6105,1.6105,1.61,1.6104,1.6141,1.6148,1.6121,1.6119,1.6124,1.6158,1.6171,1.6175,1.6233,1.6184,1.6187,1.6189,1.619,1.6336,1.6337,0,0,0,0,0,0,1.6045,1.6052,1.6125,1.6128,1.6073,1.6103,1.6107,1.6126,1.6148,1.615,1.6126,1.6123,1.6166,1.6171,1.6176,1.6241,1.6188,1.6191,1.6193,1.6334,1.6336,1.6338,0,0,0,0,0,0,1.6043,1.6052,1.6123,1.609,1.6098,1.6106,1.6127,1.6128,1.614,1.6152,1.6153,1.6137,1.6165,1.6172,1.6215,1.6242,1.6192,1.6195,1.6331,1.6334,1.6337,1.6372,0,0,0,0,0,0,1.604,1.6051,1.6072,1.609,1.61,1.6162,1.6129,1.613,1.6146,1.6143,1.6163,1.6165,1.6164,1.6211,1.6219,1.6246,1.6198,1.6329,1.6333,1.6336,1.6368,1.6375,1.6381,0,0,0,0,0,1.6037,1.6081,1.6073,1.6082,1.6127,1.6164,1.6169,1.6168,1.6148,1.6169,1.6176,1.6164,1.6238,1.6215,1.6224,1.6253,1.6327,1.6332,1.6336,1.6365,1.6374,1.6381,0,0,0,0,0,0,1.6066,1.6083,1.6075,1.6126,1.6144,1.616,1.6186,1.6177,1.62,1.6197,1.6194,1.6198,1.6244,1.6253,1.6227,1.6306,1.628,1.6286,1.6299,1.6307,1.6314,1.631,1.6201,0,0,0,0,0,1.6079,1.6107,1.612,1.6164,1.6173,1.6178,1.6194,1.6191,1.6209,1.6217,1.6227,1.6245,1.6272,1.629,1.6316,1.6369,1.6373,1.6393,1.64,1.6405,1.641,1.6438,1.6447,1.6352,1.6352,1.6352,0,0,1.6105,1.6117,1.6136,1.617,1.6184,1.6213,1.6185,1.6217,1.6239,1.6222,1.6263,1.6272,1.6292,1.634,1.6362,1.6349,1.6437,1.641,1.6415,1.6417,1.6443,1.6452,1.646,1.6355,1.6354,1.6354,0,0,1.6167,1.618,1.6217,1.623,1.625,1.6253,1.6262,1.628,1.6284,1.6326,1.6313,1.6339,1.6386,1.64,1.6414,1.648,1.6469,1.6489,1.6523,1.655,1.6558,1.6564,1.6587,1.6595,1.6494,1.6494,1.6494,0,1.6197,1.624,1.6237,1.6271,1.6286,1.6271,1.6309,1.6322,1.6349,1.636,1.6345,1.6403,1.6416,1.6466,1.6482,1.6494,1.6504,1.6486,1.6557,1.6563,1.657,1.6591,1.66,1.6496,1.6496,1.6496,1.6496,0,1.6276,1.6306,1.6334,1.636,1.6379,1.6414,1.6416,1.6435,1.643,1.6434,1.6477,1.6491,1.6518,1.653,1.6527,1.6581,1.6572,1.6557,1.653,1.6581,1.6601,1.6609,1.6499,1.6499,1.6498,1.6497,0,0,1.6358,1.6381,1.6392,1.6403,1.6423,1.6447,1.6481,1.6508,1.6523,1.6543,1.6571,1.6611,1.6597,1.6612,1.6609,1.6633,1.6683,1.6615,1.6615,1.6627,1.6743,1.6753,1.6763,1.6676,1.6678,1.6679,1.6741,0,1.6421,1.648,1.6478,1.6534,1.6561,1.6547,1.6577,1.6592,1.6597,1.6621,1.6626,1.6654,1.6634,1.6643,1.6666,1.6672,1.6707,1.6668,1.6702,1.6703,1.6697,1.6774,1.6785,1.6843,1.6749,1.675,1.6751,0,1.6502,1.6524,1.6582,1.6597,1.6608,1.6635,1.6659,1.6682,1.6699,1.6701,1.6717,1.671,1.6745,1.6717,1.6763,1.6737,1.6751,1.6756,1.6758,1.6761,1.673,1.6778,1.6861,1.687,1.6764,1.6763,1.6762,0,1.6555,1.6599,1.6639,1.6649,1.6668,1.6687,1.6696,1.6711,1.6727,1.6747,1.6757,1.6782,1.6796,1.6815,1.6815,1.6795,1.6861,1.6834,1.6863,1.6863,1.6878,1.6877,1.6964,1.6888,1.6888,1.6888,1.6887,0,1.6625,1.6661,1.6662,1.6687,1.6726,1.6723,1.6762,1.6769,1.6783,1.6808,1.6798,1.6822,1.6821,1.6845,1.6845,1.6883,1.6889,1.6891,1.6891,1.6892,1.6891,1.69,1.6896,1.689,1.6889,1.6889,1.6888,0,1.6691,1.6694,1.6736,1.675,1.6755,1.6783,1.6795,1.6818,1.6822,1.6854,1.6861,1.6867,1.6895,1.6896,1.6929,1.6929,1.6975,1.697,1.6969,1.6968,1.6997,1.6993,1.7092,1.7104,1.7021,1.7022,1.7022,0,1.6736,1.6763,1.678,1.6796,1.6805,1.6831,1.6847,1.6845,1.6862,1.6883,1.6903,1.693,1.6951,1.6996,1.7003,1.7027,1.7023,1.7056,1.7027,1.7026,1.7022,1.702,1.7023,1.7061,1.7062,1.7063,1.7064,0,1.6814,1.6813,1.6836,1.686,1.6879,1.6897,1.6914,1.6928,1.6927,1.6947,1.6975,1.6991,1.7024,1.705,1.7074,1.7083,1.7073,1.7073,1.7081,1.7082,1.7079,1.708,1.6983,1.707,1.707,1.7069,1.7069,1.7069,1.6869,1.6892,1.6907,1.6933,1.6946,1.6962,1.6984,1.6989,1.7013,1.7039,1.7036,1.7067,1.7082,1.7113,1.7123,1.7147,1.7136,1.7148,1.7151,1.7154,1.7156,1.7076,1.7152,1.7152,1.7151,1.7151,1.7151,0,1.6946,1.6955,1.6979,1.7002,1.7022,1.7011,1.7029,1.7047,1.7074,1.7089,1.711,1.7141,1.7167,1.7175,1.72,1.7217,1.7213,1.7223,1.7222,1.7224,1.7165,1.7155,1.7226,1.7226,1.7226,1.7226,1.7226,1.7226,1.6988,1.7026,1.7027,1.7071,1.7079,1.7109,1.712,1.7134,1.7146,1.7182,1.7203,1.7208,1.722,1.7245,1.7268,1.727,1.7279,1.7291,1.7291,1.7236,1.7228,1.7221,1.7212,1.7293,1.7293,1.7347,1.7348,1.7348]},{"header":{"parameterUnit":"m.s-1","parameterCategory":1,"la1":30.2991,"la2":30.254,"lo1":-89.0895,"lo2":-89.0444,"dx":0.0017,"dy":0.0017,"nx":28,"ny":28,"refTime":"2023-02-06T09:00:00:Z","depth":0,"parameterNumber":3,"parameterNumberName":"V-component_of_WINDS"},"data":[0,0,0,0,0,0,0,0,0,0,0,0,0,0,0,0,0,0,0,0,0,0,0,0,0,0,0,0,0,0,0,0,0,0,0,0,0,0,0,0,0,0,0,0,0,0,0,0,0,0,0,0,0,0,0,0,0,0,0.0713,0.0714,0,0.082,0.0821,0.0823,0.0827,0.0825,0.0824,0.0823,0.0931,0.0935,0.0939,0,0,0,0,0,0,0,0,0,0,0,0,0,0.0508,0.0511,0.0712,0.0714,0.0715,0.082,0.0821,0.0823,0.0827,0.0825,0.0824,0.0822,0.093,0.0935,0.094,0,0,0,0,0,0,0,0,0,0,0,0,0,0.0604,0.0513,0.0712,0.073,0.0733,0.082,0.0821,0.0823,0.0827,0.0825,0.0823,0.0822,0.0928,0.0934,0.094,0.1017,0,0,0.0959,0.0962,0,0,0,0,0,0,0,0,0.0598,0.0611,0.0726,0.0729,0.0732,0.0808,0.0789,0.0888,0.0828,0.0791,0.0823,0.0821,0.0892,0.0901,0.0925,0.1022,0.1026,0.096,0.0963,0.0966,0.0968,0,0,0,0,0,0,0,0.0592,0.0607,0.0755,0.0728,0.0731,0.0731,0.0743,0.0808,0.0851,0.0794,0.0795,0.0808,0.0893,0.0919,0.0928,0.1028,0.0959,0.0965,0.0969,0.0971,0.119,0.1192,0,0,0,0,0,0,0.0582,0.0601,0.0752,0.0758,0.0659,0.0737,0.075,0.0786,0.085,0.0858,0.0809,0.0807,0.091,0.0921,0.0932,0.1024,0.0966,0.0972,0.0975,0.1188,0.1191,0.1193,0,0,0,0,0,0,0.0578,0.0595,0.0747,0.068,0.0699,0.0742,0.0783,0.0789,0.0815,0.0861,0.0869,0.0828,0.0909,0.0923,0.0995,0.1028,0.0974,0.098,0.1186,0.1189,0.1192,0.1211,0,0,0,0,0,0,0.0572,0.0594,0.0624,0.0681,0.0703,0.081,0.0785,0.0792,0.0826,0.0824,0.0881,0.0889,0.0908,0.0986,0.1001,0.1036,0.0985,0.1183,0.1187,0.1191,0.1208,0.1214,0.122,0,0,0,0,0,0.0564,0.0625,0.0626,0.0644,0.0742,0.0812,0.0825,0.0846,0.0828,0.0859,0.0888,0.0887,0.1022,0.0993,0.1011,0.1047,0.1181,0.1186,0.1191,0.1205,0.1213,0.122,0,0,0,0,0,0,0.0572,0.0633,0.0634,0.0715,0.0759,0.0813,0.0852,0.0855,0.0904,0.09,0.0924,0.0937,0.1008,0.1035,0.1002,0.1123,0.1099,0.1108,0.1104,0.1112,0.1118,0.1111,0.099,0,0,0,0,0,0.0583,0.0635,0.0686,0.0752,0.0774,0.0809,0.0841,0.0853,0.0899,0.0917,0.0952,0.0995,0.1047,0.1081,0.1131,0.1211,0.1222,0.1244,0.125,0.1255,0.1263,0.1305,0.1315,0.1209,0.1209,0.1209,0,0,0.0606,0.0646,0.0678,0.0755,0.079,0.0843,0.0825,0.0882,0.0921,0.0925,0.0996,0.1022,0.1072,0.1148,0.1183,0.1172,0.1294,0.1262,0.1265,0.127,0.1311,0.1321,0.133,0.1212,0.1212,0.1211,0,0,0.0676,0.0712,0.0771,0.0806,0.0859,0.0881,0.0895,0.0949,0.0967,0.1038,0.1042,0.1088,0.1177,0.1212,0.1242,0.1322,0.1322,0.1337,0.1371,0.1412,0.142,0.1428,0.1456,0.1466,0.1344,0.1344,0.1344,0,0.0699,0.078,0.0801,0.0858,0.0891,0.0897,0.0956,0.0988,0.1055,0.1077,0.1064,0.1175,0.1209,0.1292,0.1311,0.1335,0.1351,0.1332,0.1417,0.1425,0.1432,0.1459,0.147,0.1346,0.1346,0.1345,0.1345,0,0.0804,0.086,0.0901,0.0965,0.1003,0.106,0.1089,0.1124,0.1132,0.1156,0.1227,0.1267,0.1325,0.1346,0.1355,0.143,0.1422,0.1413,0.1389,0.1444,0.1469,0.148,0.1348,0.1347,0.1347,0.1347,0,0,0.0884,0.0957,0.0972,0.1001,0.1058,0.1101,0.1158,0.1215,0.1244,0.1289,0.1337,0.1411,0.1402,0.1436,0.1448,0.1484,0.1544,0.1471,0.1472,0.1483,0.1628,0.1635,0.1646,0.1544,0.1546,0.1547,0.1623,0,0.096,0.1063,0.1082,0.1171,0.1222,0.1227,0.1276,0.1316,0.1339,0.1384,0.1409,0.1461,0.1446,0.1466,0.1502,0.1529,0.1573,0.1524,0.1588,0.159,0.1576,0.166,0.1668,0.1738,0.1634,0.1635,0.1637,0,0.1064,0.1111,0.1205,0.1254,0.1276,0.132,0.1373,0.1417,0.1461,0.1475,0.1511,0.1519,0.1576,0.1549,0.1628,0.1594,0.162,0.1638,0.1641,0.1648,0.1617,0.167,0.1761,0.1771,0.1653,0.1652,0.165,0,0.1112,0.1199,0.1266,0.129,0.1349,0.138,0.1406,0.1448,0.1481,0.1526,0.1547,0.1598,0.1627,0.1665,0.1686,0.1664,0.1763,0.1738,0.1775,0.1775,0.1797,0.1796,0.1894,0.1814,0.1813,0.1813,0.1813,0,0.1196,0.1253,0.1288,0.133,0.1393,0.1414,0.1476,0.1501,0.1538,0.1584,0.159,0.1632,0.1657,0.1702,0.1718,0.178,0.1793,0.1805,0.1809,0.1805,0.1803,0.1824,0.1819,0.1816,0.1815,0.1815,0.1814,0,0.1261,0.1288,0.1361,0.141,0.1424,0.1468,0.151,0.1549,0.1571,0.1628,0.1642,0.1676,0.1729,0.1754,0.1819,0.183,0.1901,0.1901,0.1886,0.1888,0.1924,0.192,0.204,0.2056,0.1964,0.1965,0.1966,0,0.1313,0.1357,0.1411,0.1442,0.1469,0.1518,0.1551,0.1572,0.1606,0.1658,0.1691,0.1744,0.1789,0.1873,0.1903,0.1952,0.1954,0.1992,0.1961,0.1955,0.1954,0.1952,0.1956,0.1998,0.1999,0.1999,0.2,0,0.1403,0.1413,0.146,0.1512,0.1551,0.1592,0.1633,0.1657,0.1684,0.1722,0.1776,0.181,0.1877,0.1929,0.198,0.2005,0.2007,0.2009,0.202,0.2017,0.2007,0.2013,0.1902,0.2007,0.2006,0.2006,0.2005,0.2005,0.1463,0.1502,0.1546,0.1598,0.163,0.1667,0.1706,0.1732,0.1779,0.1835,0.1844,0.1902,0.1942,0.2011,0.2038,0.2082,0.2073,0.209,0.2094,0.2098,0.21,0.1999,0.2092,0.2092,0.2091,0.2091,0.2091,0,0.1553,0.1581,0.1628,0.1685,0.1725,0.1722,0.1767,0.18,0.1851,0.189,0.1932,0.1994,0.2044,0.2077,0.2127,0.2157,0.2158,0.2169,0.2168,0.2173,0.2106,0.2091,0.2167,0.2167,0.2167,0.2167,0.2167,0.2167,0.1604,0.167,0.1685,0.1765,0.1792,0.185,0.1875,0.1908,0.1939,0.2008,0.205,0.2071,0.2106,0.2159,0.2204,0.2212,0.223,0.2242,0.2249,0.2186,0.2178,0.2171,0.2157,0.2245,0.2245,0.2313,0.2314,0.2314]}]]